Location: Cassano d�Adda
(45.5333°N, 9.5167°E)
Time: 05:16:58
(UTC+00:00)

Cosmos 1862 Rocket - Pass Details

Date: 08 December 2019
Orbit: 604 x 633 km, 82.5° (Epoch: 18 January)

Event Time Altitude Azimuth Distance (km) Brightness Sun altitude
Rises 16:12:28 0° 160° (SSE) 2,855 7.1 -6.0°
Reaches altitude 10° 16:14:52 10° 150° (SSE) 1,960 6.1 -6.4°
Maximum altitude 16:18:37 29° 90° (E) 1,127 4.4 -7.0°
Drops below altitude 10° 16:22:25 10° 30° (NNE) 1,988 5.7 -7.6°
Enters shadow 16:24:52 - 19° (NNE) 2,904 6.6 -8.0°
